Погода в Лиссабоне

Португалия     38°42′58″N   9°08′29″W
темп.,
°C
ветер,
м/с
пор.,
м/с
влажн.,
%
обл.,
%
осадки,
мм/ч
давл.,
гПа
погр.,
м
25 февраля, чт
чт2500:00+13ю389137 0.4 1026560
03:00+13ссз1290100 3.8 1024235
06:00+12ссв2580100 5.5 1025371
09:00+13ссз115721 0.0 1026304
12:00+16ссв244410 0.0 10261306
15:00+17ссв565420 0.1 10251378
18:00+14с696952 0.4 1025842
21:00+12ссв3778100 0.0 1026518
26 февраля, пт
пт2600:00+12ссв3680100 0.1 1026370
03:00+12ссв2581100 0.1 1025340
06:00+11св258599 0.3 1025257
09:00+12всв2483100 0.1 1026196
12:00+13всв2479100 0.6 1026340
15:00+14ссв2575100 0.3 1025349
18:00+15с2778100 2.1 1025333
21:00+14ссв3975100 0.9 1026325
27 февраля, сб
сб2700:00+13св257598 1.0 1025164
03:00+12св3776100 0.1 1024213
06:00+12всв3873100 0.1 1024244
09:00+13всв496567 0.0 1024288
12:00+16всв475480 0.0 1024426
15:00+18всв4653100 0.0 1022696
18:00+17всв3658100 0.0 1021600
21:00+15св2565100 0.0 1022177
28 февраля, вс
вс2800:00+14всв256495 0.0 1021215
03:00+12всв367286 0.0 1020225
06:00+11всв367069 0.0 1019241
09:00+12всв34680 0.0 1020196
12:00+16в45563 0.0 1019462
15:00+18в354697 0.0 1018879
18:00+17в355599 0.0 1017624
21:00+15всв2561100 0.1 1019325
1 марта, пн
пн100:00+14св247299 0.4 1019165
03:00+13всв237662 0.0 1017130
06:00+12в367674 0.0 1018223
09:00+13всв476723 0.0 1018340
12:00+17всв455211 0.0 1019501
15:00+19с01440 0.0 10181214
18:00+17ссз34570 0.0 1019674
21:00+14ссз35660 0.0 1022229